User: anonymous   Login
Location: Domont
(49.0278°N, 2.3264°E)
Time: 17:13:40
(UTC+00:00)
Language:

FENGYUN 1C DEB - Orbit

View from above orbital plane
View from above orbital plane
View from above satellite
View from above satellite

Ground track
Ground track

The orbit data is extracted from the following two-line orbital elements,

1 32160U 99025CTE 22332.77884088  .00000624  00000-0  24195-3 0  9995
2 32160  98.7587  91.5916 0090621  22.2333 338.2740 14.31273338799762
Epoch (UTC): 28 November 2022 18:41:31
Eccentricity: 0.0090621
inclination: 98.7587°
perigee height: 722 km
apogee height: 852 km
right ascension of ascending node: 91.5916°
argument of perigee: 22.2333°
revolutions per day: 14.31273338
mean anomaly at epoch: 338.2740°
orbit number at epoch: 79976

The dashed part of the orbit path shows where the satellite is in the earth's shadow,  

DLR